Regional Weather Roundup
Issued by NWS Albany, NY

Home | Current Version | Previous Version | Text Only | Print | Product List | Glossary On
Versions: 1 2 3 4 5 6 7 8 9 10 11 12 13 14 15 16 17 18 19 20 21 22 23 24 25 26 27 28 29 30 31 32 33 34 35 36 37 38 39 40 41 42 43 44 45 46 47 48 49 50
000
ASUS41 KALY 312210
RWRALY

NEW YORK STATE HOURLY WEATHER ROUNDUP
NATIONAL WEATHER SERVICE ALBANY NY
600 PM EDT MON AUG 31 2015

NOTE: "FAIR" INDICATES FEW OR NO CLOUDS BELOW 12,000 FEET WITH NO
SIGNIFICANT WEATHER AND/OR NO OBSTRUCTIONS TO VISIBILITY.

NYZ032-033-038>043-046>054-057>066-NYZ062>081-312300-
EAST


CITY           SKY/WX    TMP DP  RH WIND       PRES   REMARKS
ALBANY         MOSUNNY   84  63  49 NW16G26   29.94R
GLENS FALLS    PTSUNNY   82  61  48 W7        29.92R
POUGHKEEPSIE   SUNNY     89  64  43 W9        29.93R HX  90
NEWBURGH       MOSUNNY   86  68  54 W12       29.96
MONTGOMERY     SUNNY     86  69  56 SW5       29.95S HX  90
WHITE PLAINS   MOSUNNY   88  64  44 W7        29.95S
ISLIP          PTSUNNY   83  69  62 SW10      29.94R
NEW YORK CITY  MOSUNNY   90  63  40 W15       29.94R HX  91
CENTRAL PARK   MOSUNNY   89  63  41 VRB3      29.98R HX  90
$$

NYZ005>009-017-018-044>046-055-056-312300-
CENTRAL


CITY           SKY/WX    TMP DP  RH WIND       PRES   REMARKS
FULTON         SUNNY     78  64  61 W8        30.00S
SYRACUSE       MOSUNNY   79  66  64 W12       29.99S
ROME           SUNNY     79  63  57 W17       30.00R
ELMIRA         SUNNY     86  64  47 NW8       30.00R
BINGHAMTON     SUNNY     80  63  55 NW10      30.04R
MONTICELLO     MOSUNNY   81  66  61 W6        30.03R
$$

NYZ026>034-041>043-312300-
NORTH


CITY           SKY/WX    TMP DP  RH WIND       PRES   REMARKS
WATERTOWN      MOSUNNY   76  67  73 SW8       29.98R HAZE
FORT DRUM      NOT AVBL
MASSENA        MOSUNNY   77  64  64 NW7       29.96R
SARANAC LAKE   SUNNY     73  62  68 VRB6      29.99R
PLATTSBURGH    SUNNY     78  64  61 N9        29.92R
$$

NYZ001>004-010>016-019>021-312300-
WEST


CITY           SKY/WX    TMP DP  RH WIND       PRES   REMARKS
NIAGARA FALLS  MOSUNNY   79  67  66 SW14      30.01S
BUFFALO        MOSUNNY   77  67  71 W17       30.03S
DUNKIRK        SUNNY     77  68  73 SW13      30.05F
JAMESTOWN      SUNNY     77  63  61 W10       30.09S
WELLSVILLE     MOSUNNY   81  62  52 NW12      30.10S
ROCHESTER      PTSUNNY   80  67  64 N7        30.01R
PENN YAN       SUNNY     82  64  54 W8        30.03R
$$

             KEY
       WCI = WIND CHILL INDEX
       VSB = VISIBILITY
       HX  = HEAT INDEX
$$



USA.gov is the U.S. government's official web portal to all federal, state and local government web resources and services.